Regional Weather Roundup
Issued by NWS

Home | Current Version | Previous Version | Text Only | Print | Product List | Glossary Off
Versions: 1 2 3 4 5 6 7 8 9 10 11 12 13 14 15 16 17 18 19 20 21 22 23 24 25 26 27 28 29 30 31 32 33 34 35 36 37 38 39 40 41 42 43 44 45 46 47 48 49 50

000
ASUS43 KFSD 222310
RWRSD

WEATHER ROUNDUP FOR SOUTH DAKOTA
NATIONAL WEATHER SERVICE SIOUX FALLS SD
600 PM CDT TUE MAY 22 2018

NOTE: "FAIR" INDICATES FEW OR NO CLOUDS BELOW 12,000 FEET WITH NO
SIGNIFICANT WEATHER AND/OR OBSTRUCTIONS TO VISIBILITY.


SDZ001>005-009-010-012>017-230000-
NORTHWEST AND NORTH CENTRAL SOUTH DAKOTA

CITY           SKY/WX    TMP DP  RH WIND       PRES   REMARKS
BUFFALO          N/A     79  55  43 SE8       29.86S
FAITH            N/A     75  63  66 SE9       29.91F
MOBRIDGE       MOSUNNY   84  58  40 S9        29.87F
$$

SDZ012>016-024>037-041>051-057-063-072>074-230000-
SOUTHWEST AND SOUTH CENTRAL SOUTH DAKOTA

CITY           SKY/WX    TMP DP  RH WIND       PRES   REMARKS
RAPID CTY ARPT PTSUNNY   78  58  49 E9        29.92R
PIERRE         MOSUNNY   79  63  57 SE12      29.87F
CUSTER         CLOUDY    68  46  45 E17G25    30.03S
ELLSWORTH AFB  CLOUDY    77  56  48 E6        29.93R
PHILIP         MOSUNNY   81  58  45 SE12      29.87S
PINE RIDGE     TSTM      68  62  81 NE8G21    29.90R
SPEARFISH      PTSUNNY   68  43  40 SE16G23   29.96F
WINNER         FAIR      82  65  56 SE12      29.89F
$$

SDZ004>011-016>023-039-040-230000-
NORTHEAST SOUTH DAKOTA

CITY           SKY/WX    TMP DP  RH WIND       PRES   REMARKS
ABERDEEN       SUNNY     85  53  33 S13G22    29.91S
WATERTOWN      MOSUNNY   81  52  36 S9        29.94F
BROOKINGS      CLOUDY    79  61  53 SE9       29.95F
SISSETON         N/A     83  54  36 E8G17     29.93F
$$

SDZ017-020-022-023-036>040-048>070-230000-
SOUTHEAST SOUTH DAKOTA

CITY           SKY/WX    TMP DP  RH WIND       PRES   REMARKS
SIOUX FALLS    CLOUDY    77  65  66 SE13      29.94S
HURON          PTSUNNY   83  62  49 SE8       29.90F
CHAMBERLAIN    MOSUNNY   82  66  57 SE10      29.89F
MITCHELL       MOSUNNY   80  65  59 SE13      29.90F
YANKTON        CLOUDY    78  67  68 E12       29.91F
$$

ABBREVIATIONS USED IN REMARKS
   TC - TEMPERATURE IN CELSIUS
  WCI - WIND CHILL INDEX
   HX - HEAT INDEX
  VSB - VISIBILITY




USA.gov is the U.S. government's official web portal to all federal, state and local government web resources and services.